Regional Weather Roundup
Issued by NWS Northern Indiana

Home | Current Version | Previous Version | Graphics & Text | Print | Product List | Glossary On
Versions: 1 2 3 4 5 6 7 8 9 10 11 12 13 14 15 16 17 18 19 20 21 22 23 24 25 26 27 28 29 30 31 32 33 34 35 36 37 38 39 40 41 42 43 44 45 46 47 48 49 50
000
ASUS43 KIWX 291810
RWRIWX

KIWX WEATHER ROUNDUP
NATIONAL WEATHER SERVICE NORTHERN INDIANA
200 PM EDT MON SEP 29 2014

NOTE: "FAIR" INDICATES FEW OR NO CLOUDS BELOW 12,000 FEET WITH NO
SIGNIFICANT WEATHER AND/OR OBSTRUCTIONS TO VISIBILITY.

* THESE STATIONS ARE NOT UNDER NWS QUALITY CONTROL. THEY ALSO MAY NOT
  REPORT WEATHER SUCH AS PRECIPITATION OR FOG.

INZ001>027-291900-
NORTHERN INDIANA

CITY           SKY/WX    TMP DP  RH WIND       PRES   REMARKS
GARY*          SUNNY     81  55  41 VRB5      30.01F
MICHIGAN CITY* SUNNY     77  48  36 W6        30.01F
LAPORTE*       SUNNY     79  58  48 W3        30.01F
6HR MIN TEMP:  50; 6HR MAX TEMP:  79;

KNOX*          SUNNY     77  54  44 CALM      30.00F
6HR MIN TEMP:  40; 6HR MAX TEMP:  80;

SOUTH BEND     NOT AVBL
MONTICELLO*    SUNNY     79  58  49 N6        30.01F
6HR MIN TEMP:  47; 6HR MAX TEMP:  79;

LOGANSPORT*    SUNNY     77  48  36 NW3       30.02F
ROCHESTER*     SUNNY     79  55  44 NW3       30.02F
WARSAW*        SUNNY     75  54  46 NW6       30.01F
ANGOLA*        SUNNY     77  54  44 N3        30.00F
FORT WAYNE     MOSUNNY   77  54  44 N8        30.01F
6HR MIN TEMP:  50; 6HR MAX TEMP:  77;

HUNTINGTON*    SUNNY     75  54  48 W3        30.00F
6HR MIN TEMP:  49; 6HR MAX TEMP:  75;

PERU/GRISSOM   SUNNY     76  56  49 NW6       30.01F
6HR MIN TEMP:  51; 6HR MAX TEMP:  76;

MARION*        SUNNY     77  45  32 NW6       30.01F
6HR MIN TEMP:  40; 6HR MAX TEMP:  90;


$$
INZ028>050-291900-
CENTRAL INDIANA

CITY           SKY/WX    TMP DP  RH WIND       PRES   REMARKS
LAFAYETTE      SUNNY     78  57  48 N9        30.01F
6HR MIN TEMP:  48; 6HR MAX TEMP:  79;

KOKOMO*        SUNNY     79  52  38 CALM      30.01F
6HR MIN TEMP:  48; 6HR MAX TEMP:  79;

MUNCIE*        SUNNY     78  50  37 NW6       30.01F
6HR MIN TEMP:  51; 6HR MAX TEMP:  79;

INDIANAPOLIS   SUNNY     80  41  24 NW9       30.00F
6HR MIN TEMP:  54; 6HR MAX TEMP:  80;


$$
MIZ043>046-050>051-056>058-064>065-071>073-077>080-291900-
SOUTHWEST LOWER MICHIGAN

CITY           SKY/WX    TMP DP  RH WIND       PRES   REMARKS
BATTLE CREEK   SUNNY     75  53  46 W7        30.00F
6HR MIN TEMP:  50; 6HR MAX TEMP:  75;

COLDWATER*     SUNNY     77  55  45 NW5       30.00F
6HR MIN TEMP:  49; 6HR MAX TEMP:  77;

HILLSDALE*     SUNNY     76  54  46 W6        30.00F
6HR MIN TEMP:  48; 6HR MAX TEMP:  76;

GRAND RAPIDS   MOSUNNY   77  60  55 W10       29.99F
6HR MIN TEMP:  50; 6HR MAX TEMP:  77;

KALAMAZOO      SUNNY     77  56  48 CALM      30.00F
6HR MIN TEMP:  48; 6HR MAX TEMP:  77;

STURGIS*         N/A     75  54  46 W3        30.00F
THREE RIVERS*  FAIR      77  56  49 W5        30.01F

$$
OHZ001>008-015>018-024>025-291900-
NORTHWEST OHIO

CITY           SKY/WX    TMP DP  RH WIND       PRES   REMARKS
WAUSEON*       FAIR      77  54  44 MISG      29.98F
DEFIANCE       SUNNY     77  53  43 NW6       29.99F
6HR MIN TEMP:  49; 6HR MAX TEMP:  78;

FINDLAY        SUNNY     78  50  37 NW6       29.97F
6HR MIN TEMP:  52; 6HR MAX TEMP:  79;

TOLEDO EXPRESS SUNNY     76  53  44 CALM      29.98F
6HR MIN TEMP:  51; 6HR MAX TEMP:  77;

TOLEDO METCALF SUNNY     77  54  44 W9        29.98F
6HR MIN TEMP:  53; 6HR MAX TEMP:  78;

LIMA           SUNNY     78  53  41 NW10      29.99F
6HR MIN TEMP:  52; 6HR MAX TEMP:  78;


$$
AND FOR LAKE MICHIGAN COASTAL AND OPEN LAKE BUOY OBSERVATIONS

STATION/POSITION TEMP    WIND        PRES    VSBY  WAVE
                 AIR SEA DIR/SP/G                  HT/PER
                 (F)     (DEG/KT/KT) (MB)    (MI)  (FT/S)
CALUMET HARBOR    79     220/  4/  7 1014.7F
MICHIGAN CITY     67     220/  3/  4   N/A
SAINT JOSEPH      66     180/  5/  7 1016.9R
SOUTH LAKE BUOY   65 65  210/ 10/ 10 1015.5F         1
4 MI NW BRIDGMAN  65 65  210/  6/  6   N/A           0
MICHIGAN CITY     69 67  180/  2/  2   N/A           0

$$
&&



USA.gov is the U.S. government's official web portal to all federal, state and local government web resources and services.